Time,TemperatureF,DewpointF,PressureIn,WindDirection,WindDirectionDegrees,WindSpeedMPH,WindSpeedGustMPH,Humidity,HourlyPrecipIn,Conditions,Clouds,dailyrainin,SolarRadiationWatts/m^2,SoftwareType,DateUTC
2013-03-12 08:10:00,27.7,24.3,30.07,West,271,11.0,12.0,87,0.00,,,0.00,18,Wunderground v.1.15,2013-03-12 13:10:00,
2013-03-12 08:20:00,27.8,24.4,30.07,NW,311,11.0,11.0,87,0.00,,,0.00,39,Wunderground v.1.15,2013-03-12 13:20:00,
2013-03-12 08:30:00,28.3,24.9,30.07,WSW,257,13.0,13.0,87,0.00,,,0.00,56,Wunderground v.1.15,2013-03-12 13:30:00,
2013-03-12 08:40:00,28.6,25.5,30.08,WNW,298,11.0,13.0,88,0.00,,,0.00,84,Wunderground v.1.15,2013-03-12 13:40:00,
2013-03-12 08:50:00,29.1,25.7,30.08,NW,309,11.0,11.0,87,0.00,,,0.00,90,Wunderground v.1.15,2013-03-12 13:50:00,
2013-03-12 09:00:00,29.2,25.3,30.08,WNW,303,12.0,12.0,85,0.00,,,0.00,93,Wunderground v.1.15,2013-03-12 14:00:00,
2013-03-12 09:10:00,29.2,24.1,30.09,NW,312,13.0,13.0,81,0.00,,,0.00,250,Wunderground v.1.15,2013-03-12 14:10:00,
2013-03-12 09:20:00,29.3,24.8,30.09,WNW,299,9.0,15.0,83,0.00,,,0.00,276,Wunderground v.1.15,2013-03-12 14:20:00,
2013-03-12 09:30:00,29.7,25.5,30.09,WNW,285,11.0,11.0,84,0.00,,,0.00,336,Wunderground v.1.15,2013-03-12 14:30:00,
2013-03-12 09:40:00,29.7,24.9,30.10,WNW,290,12.0,14.0,82,0.00,,,0.00,209,Wunderground v.1.15,2013-03-12 14:40:00,
2013-03-12 09:50:00,29.8,25.0,30.10,WNW,297,12.0,19.0,82,0.00,,,0.00,167,Wunderground v.1.15,2013-03-12 14:50:00,
2013-03-12 10:00:00,29.6,25.1,30.10,NNW,329,9.0,9.0,83,0.00,,,0.00,160,Wunderground v.1.15,2013-03-12 15:00:00,
2013-03-12 10:10:00,29.8,25.3,30.11,NNW,348,10.0,10.0,83,0.00,,,0.00,232,Wunderground v.1.15,2013-03-12 15:10:00,
2013-03-12 10:20:00,29.8,25.3,30.11,NNW,335,11.0,17.0,83,0.00,,,0.00,202,Wunderground v.1.15,2013-03-12 15:20:00,
2013-03-12 10:30:00,30.1,25.6,30.11,NNW,339,12.0,12.0,83,0.00,,,0.00,301,Wunderground v.1.15,2013-03-12 15:30:00,
2013-03-12 10:40:00,30.3,25.8,30.12,NW,311,11.0,16.0,83,0.00,,,0.00,352,Wunderground v.1.15,2013-03-12 15:40:00,
2013-03-12 10:50:00,30.6,25.8,30.12,WNW,292,12.0,12.0,82,0.00,,,0.00,396,Wunderground v.1.15,2013-03-12 15:50:00,
2013-03-12 11:00:00,30.5,25.7,30.13,NW,319,10.0,11.0,82,0.00,,,0.00,534,Wunderground v.1.15,2013-03-12 16:00:00,
2013-03-12 11:10:00,30.8,26.0,30.13,NW,313,11.0,11.0,82,0.00,,,0.00,374,Wunderground v.1.15,2013-03-12 16:10:00,
2013-03-12 11:20:00,30.7,25.6,30.13,West,279,12.0,12.0,81,0.00,,,0.00,404,Wunderground v.1.15,2013-03-12 16:20:00,
2013-03-12 11:30:00,31.1,26.2,30.14,NW,305,12.0,12.0,82,0.00,,,0.00,756,Wunderground v.1.15,2013-03-12 16:30:00,
2013-03-12 11:40:00,31.1,26.0,30.14,WNW,301,13.0,14.0,81,0.00,,,0.01,715,Wunderground v.1.15,2013-03-12 16:40:00,
2013-03-12 11:50:00,31.2,26.0,30.14,NW,315,14.0,16.0,81,0.00,,,0.01,452,Wunderground v.1.15,2013-03-12 16:50:00,
2013-03-12 12:00:00,31.0,26.1,30.15,WNW,291,14.0,14.0,82,0.00,,,0.01,438,Wunderground v.1.15,2013-03-12 17:00:00,
2013-03-12 12:10:00,31.6,26.4,30.15,NW,315,14.0,14.0,81,0.00,,,0.01,434,Wunderground v.1.15,2013-03-12 17:10:00,
2013-03-12 12:20:00,31.5,26.0,30.15,WNW,293,14.0,14.0,80,0.00,,,0.01,512,Wunderground v.1.15,2013-03-12 17:20:00,
2013-03-12 12:30:00,31.5,26.0,30.15,North,5,13.0,13.0,80,0.00,,,0.01,520,Wunderground v.1.15,2013-03-12 17:30:00,
2013-03-12 12:40:00,31.3,25.8,30.15,NW,312,14.0,14.0,80,0.00,,,0.01,513,Wunderground v.1.15,2013-03-12 17:40:00,
2013-03-12 12:50:00,30.8,25.4,30.16,NNE,15,14.0,14.0,80,0.00,,,0.01,413,Wunderground v.1.15,2013-03-12 17:50:00,
2013-03-12 13:00:00,31.4,25.3,30.16,NW,313,13.0,14.0,78,0.00,,,0.01,520,Wunderground v.1.15,2013-03-12 18:00:00,
2013-03-12 13:10:00,31.5,25.7,30.16,West,280,14.0,14.0,79,0.00,,,0.01,580,Wunderground v.1.15,2013-03-12 18:10:00,
2013-03-12 13:20:00,32.0,25.9,30.16,NW,308,14.0,17.0,78,0.00,,,0.01,647,Wunderground v.1.15,2013-03-12 18:20:00,
2013-03-12 13:30:00,31.3,25.5,30.17,NW,319,15.0,15.0,79,0.00,,,0.01,503,Wunderground v.1.15,2013-03-12 18:30:00,
2013-03-12 13:40:00,30.6,25.2,30.17,WNW,300,14.0,14.0,80,0.00,,,0.01,322,Wunderground v.1.15,2013-03-12 18:40:00,
2013-03-12 13:50:00,29.0,24.8,30.18,North,349,15.0,20.0,84,0.00,,,0.01,128,Wunderground v.1.15,2013-03-12 18:50:00,
2013-03-12 14:00:00,27.3,23.9,30.18,North,355,16.0,16.0,87,0.00,,,0.01,251,Wunderground v.1.15,2013-03-12 19:00:00,
2013-03-12 14:10:00,27.8,23.9,30.18,NW,315,16.0,18.0,85,0.00,,,0.01,329,Wunderground v.1.15,2013-03-12 19:10:00,
2013-03-12 14:20:00,27.8,23.6,30.19,NNW,339,17.0,24.0,84,0.00,,,0.01,418,Wunderground v.1.15,2013-03-12 19:20:00,
2013-03-12 14:30:00,29.0,24.5,30.19,NW,320,16.0,22.0,83,0.00,,,0.01,422,Wunderground v.1.15,2013-03-12 19:30:00,
2013-03-12 14:40:00,27.9,23.4,30.19,NNW,348,16.0,16.0,83,0.00,,,0.01,322,Wunderground v.1.15,2013-03-12 19:40:00,
2013-03-12 14:50:00,28.7,23.6,30.19,NW,316,15.0,16.0,81,0.00,,,0.01,810,Wunderground v.1.15,2013-03-12 19:50:00,
2013-03-12 15:00:00,28.8,23.7,30.19,NNW,329,16.0,16.0,81,0.00,,,0.01,810,Wunderground v.1.15,2013-03-12 20:00:00,
2013-03-12 15:10:00,-999.9,-99.9,30.20,NW,323,15.0,18.0,255,-99.99,,,0.01,,Wunderground v.1.15,2013-03-12 20:10:00,
2013-03-12 15:20:00,-999.9,-99.9,30.20,NNW,338,13.0,13.0,255,-99.99,,,0.01,,Wunderground v.1.15,2013-03-12 20:20:00,
2013-03-12 15:30:00,-999.9,-99.9,30.20,NNW,346,17.0,17.0,255,-99.99,,,0.01,,Wunderground v.1.15,2013-03-12 20:30:00,
2013-03-12 15:40:00,28.4,22.1,30.20,NNW,333,17.0,20.0,77,0.00,,,0.01,689,Wunderground v.1.15,2013-03-12 20:40:00,
2013-03-12 15:50:00,28.4,22.1,30.20,NNW,328,17.0,17.0,77,0.00,,,0.01,633,Wunderground v.1.15,2013-03-12 20:50:00,
2013-03-12 16:00:00,29.1,22.5,30.21,NW,320,14.0,14.0,76,0.00,,,0.01,649,Wunderground v.1.15,2013-03-12 21:00:00,
2013-03-12 16:10:00,29.3,23.3,30.21,NW,310,14.0,14.0,78,0.00,,,0.01,533,Wunderground v.1.15,2013-03-12 21:10:00,
2013-03-12 16:20:00,28.4,21.8,30.21,NNW,340,16.0,16.0,76,0.00,,,0.01,250,Wunderground v.1.15,2013-03-12 21:20:00,
2013-03-12 16:30:00,28.4,21.8,30.21,NW,304,14.0,14.0,76,0.00,,,0.01,385,Wunderground v.1.15,2013-03-12 21:30:00,
2013-03-12 16:40:00,28.7,22.1,30.22,NW,318,15.0,15.0,76,0.00,,,0.01,410,Wunderground v.1.15,2013-03-12 21:40:00,
2013-03-12 16:50:00,27.9,21.6,30.22,NNW,332,17.0,21.0,77,0.00,,,0.01,237,Wunderground v.1.15,2013-03-12 21:50:00,
2013-03-12 17:00:00,27.6,22.2,30.22,NNW,342,16.0,16.0,80,0.00,,,0.01,211,Wunderground v.1.15,2013-03-12 22:00:00,
2013-03-12 17:10:00,27.5,21.8,30.22,NW,304,15.0,19.0,79,0.00,,,0.01,315,Wunderground v.1.15,2013-03-12 22:10:00,
2013-03-12 17:20:00,27.1,21.2,30.23,NW,317,15.0,15.0,78,0.00,,,0.01,236,Wunderground v.1.15,2013-03-12 22:20:00,
2013-03-12 17:30:00,27.1,20.8,30.23,NNW,335,16.0,16.0,77,0.00,,,0.01,181,Wunderground v.1.15,2013-03-12 22:30:00,
2013-03-12 17:40:00,26.9,20.7,30.24,NW,313,17.0,17.0,77,0.00,,,0.01,193,Wunderground v.1.15,2013-03-12 22:40:00,
2013-03-12 17:50:00,26.7,20.1,30.24,NW,310,16.0,16.0,76,0.00,,,0.01,200,Wunderground v.1.15,2013-03-12 22:50:00,
2013-03-12 18:00:00,26.7,20.1,30.25,NNW,327,13.0,13.0,76,0.00,,,0.01,132,Wunderground v.1.15,2013-03-12 23:00:00,
2013-03-12 18:10:00,26.6,20.1,30.25,NW,313,14.0,14.0,76,0.00,,,0.01,84,Wunderground v.1.15,2013-03-12 23:10:00,
2013-03-12 18:20:00,26.4,20.2,30.25,WNW,296,14.0,14.0,77,0.00,,,0.01,72,Wunderground v.1.15,2013-03-12 23:20:00,
2013-03-12 18:30:00,26.2,20.0,30.25,NW,321,13.0,14.0,77,0.00,,,0.01,65,Wunderground v.1.15,2013-03-12 23:30:00,
2013-03-12 18:40:00,-999.9,-99.9,30.25,NW,308,13.0,15.0,255,-99.99,,,0.01,,Wunderground v.1.15,2013-03-12 23:40:00,
2013-03-12 18:50:00,-999.9,-99.9,30.25,NW,321,14.0,15.0,255,-99.99,,,0.01,,Wunderground v.1.15,2013-03-12 23:50:00,
2013-03-12 19:00:00,-999.9,-99.9,30.25,WNW,298,14.0,14.0,255,-99.99,,,0.01,,Wunderground v.1.15,2013-03-13 00:00:00,
2013-03-12 19:10:00,-999.9,-99.9,30.25,NW,325,14.0,14.0,255,-99.99,,,0.01,,Wunderground v.1.15,2013-03-13 00:10:00,
2013-03-12 19:20:00,-999.9,-99.9,30.26,WNW,289,11.0,11.0,255,-99.99,,,0.01,,Wunderground v.1.15,2013-03-13 00:20:00,
2013-03-12 19:30:00,-999.9,-99.9,30.26,NW,323,10.0,10.0,255,-99.99,,,0.01,,Wunderground v.1.15,2013-03-13 00:30:00,
2013-03-12 19:40:00,24.7,18.8,30.27,WNW,298,10.0,11.0,78,0.00,,,0.01,0,Wunderground v.1.15,2013-03-13 00:40:00,
2013-03-12 19:50:00,24.6,18.7,30.27,NW,315,9.0,9.0,78,0.00,,,0.01,0,Wunderground v.1.15,2013-03-13 00:50:00,
2013-03-12 20:00:00,24.5,18.6,30.28,NW,311,10.0,13.0,78,0.00,,,0.01,0,Wunderground v.1.15,2013-03-13 01:00:00,
2013-03-12 20:10:00,24.6,19.0,30.28,NW,305,10.0,10.0,79,0.00,,,0.01,0,Wunderground v.1.15,2013-03-13 01:10:00,
2013-03-12 20:20:00,24.7,19.1,30.28,NW,324,11.0,11.0,79,0.00,,,0.01,0,Wunderground v.1.15,2013-03-13 01:20:00,
2013-03-12 20:30:00,24.7,19.1,30.28,NW,313,11.0,11.0,79,0.00,,,0.01,0,Wunderground v.1.15,2013-03-13 01:30:00,
2013-03-12 20:40:00,25.0,19.4,30.29,NW,323,12.0,12.0,79,0.00,,,0.01,0,Wunderground v.1.15,2013-03-13 01:40:00,
2013-03-12 20:50:00,25.2,19.9,30.29,NW,312,12.0,12.0,80,0.00,,,0.01,0,Wunderground v.1.15,2013-03-13 01:50:00,
2013-03-12 21:00:00,24.9,19.3,30.30,NW,309,10.0,10.0,79,0.00,,,0.01,0,Wunderground v.1.15,2013-03-13 02:00:00,
2013-03-12 21:10:00,24.4,19.4,30.30,NNW,328,9.0,9.0,81,0.00,,,0.01,0,Wunderground v.1.15,2013-03-13 02:10:00,
2013-03-12 21:20:00,24.2,19.5,30.30,NW,320,11.0,11.0,82,0.00,,,0.01,0,Wunderground v.1.15,2013-03-13 02:20:00,
2013-03-12 21:30:00,24.0,19.3,30.30,NW,308,11.0,11.0,82,0.00,,,0.01,0,Wunderground v.1.15,2013-03-13 02:30:00,
2013-03-12 21:40:00,24.0,19.3,30.31,NW,317,12.0,12.0,82,0.00,,,0.01,0,Wunderground v.1.15,2013-03-13 02:40:00,
2013-03-12 21:50:00,23.7,19.0,30.31,NNW,336,11.0,11.0,82,0.00,,,0.01,0,Wunderground v.1.15,2013-03-13 02:50:00,
2013-03-12 22:00:00,23.5,18.8,30.31,NW,314,11.0,15.0,82,0.00,,,0.01,0,Wunderground v.1.15,2013-03-13 03:00:00,
2013-03-12 22:10:00,23.2,18.5,30.31,NW,313,9.0,9.0,82,0.00,,,0.01,0,Wunderground v.1.15,2013-03-13 03:10:00,
2013-03-12 22:20:00,23.0,18.0,30.31,NW,319,10.0,10.0,81,0.00,,,0.01,0,Wunderground v.1.15,2013-03-13 03:20:00,
2013-03-12 22:30:00,22.7,17.7,30.32,NNW,333,10.0,10.0,81,0.00,,,0.01,0,Wunderground v.1.15,2013-03-13 03:30:00,
2013-03-12 22:40:00,22.4,17.7,30.32,NW,315,10.0,10.0,82,0.00,,,0.01,0,Wunderground v.1.15,2013-03-13 03:40:00,
2013-03-12 22:50:00,22.1,17.4,30.33,NW,319,9.0,9.0,82,0.00,,,0.01,0,Wunderground v.1.15,2013-03-13 03:50:00,
2013-03-12 23:00:00,21.7,17.1,30.33,WNW,303,8.0,8.0,82,0.00,,,0.01,0,Wunderground v.1.15,2013-03-13 04:00:00,
2013-03-12 23:10:00,21.5,17.1,30.33,NW,320,8.0,8.0,83,0.00,,,0.01,0,Wunderground v.1.15,2013-03-13 04:10:00,
2013-03-12 23:20:00,21.2,16.8,30.34,NW,318,6.0,6.0,83,0.00,,,0.01,0,Wunderground v.1.15,2013-03-13 04:20:00,
2013-03-12 23:30:00,21.0,16.9,30.34,NW,323,7.0,8.0,84,0.00,,,0.01,0,Wunderground v.1.15,2013-03-13 04:30:00,
2013-03-12 23:40:00,20.5,16.4,30.34,NNW,328,7.0,7.0,84,0.00,,,0.01,0,Wunderground v.1.15,2013-03-13 04:40:00,
2013-03-12 23:50:00,20.5,16.4,30.34,NNW,339,7.0,8.0,84,0.00,,,0.01,0,Wunderground v.1.15,2013-03-13 04:50:00,